This demonstration page uses our WeatherBlox Daily Observations layout. Learn more.

Left ArrowRight Arrow

39.95238, -75.16362

Hourly Observations for May 11, 2016

Temp ( °F °C ) Dew Point ( °F °C ) Humidity (%) Winds ( mph kmh ) Pressure ( in mb ) Visibility ( mi km ) Precip ( " mm )
12:54 am 00:54 Cloudy 53 11.7 44 6.7 72 72 NNW 5 7 30.21 1023 10 16 0.00 0.00
1:54 am 01:54 Mostly Cloudy 53 11.7 44 6.7 72 72 Calm 30.19 1022 10 16 0.00 0.00
2:54 am 02:54 Cloudy 53 11.7 44 6.7 72 72 Calm 30.18 1022 10 16 0.00 0.00
3:54 am 03:54 Cloudy 55 12.8 46 7.8 72 72 Calm 30.19 1022 10 16 0.00 0.00
4:54 am 04:54 Cloudy 54 12.2 47 8.3 77 77 NNW 5 7 30.19 1022 10 16 0.00 0.03
5:54 am 05:54 Cloudy 54 12.2 46 7.8 75 75 Calm 30.18 1022 10 16 0.00 0.00
6:54 am 06:54 Cloudy 55 12.8 45 7.2 69 69 SW 3 6 30.19 1023 10 16 0.00 0.00
7:54 am 07:54 Cloudy 56 13.3 46 7.8 70 70 Calm 30.20 1023 8 13 0.00 0.00
8:54 am 08:54 Cloudy 58 14.4 48 8.9 70 70 Calm 30.20 1023 8 13 0.00 0.00
9:21 am 09:21 Cloudy 59 15 47 8.3 64 64 Calm 30.21 1023 8 13 0.00 0.00
9:37 am 09:37 Cloudy 59 15 46 7.8 62 62 WSW 3 6 30.21 1023 8 13 0.00 0.00
9:54 am 09:54 Cloudy 59 15 47 8.3 64 64 Calm 30.20 1023 8 13 0.00 0.00
10:54 am 10:54 Cloudy 60 15.6 47 8.3 62 62 S 3 6 30.20 1023 9 14 0.00 0.00
11:54 am 11:54 Cloudy 61 16.1 47 8.3 60 60 W 3 6 30.20 1023 10 16 0.00 0.00
12:54 pm 12:54 Cloudy 63 17.2 47 8.3 56 56 VRB 3 6 30.19 1022 10 16 0.00 0.03
1:54 pm 13:54 Cloudy 65 18.3 47 8.3 52 52 W 5 7 30.16 1022 10 16 0.00 0.00
2:54 pm 14:54 Cloudy 66 18.9 48 8.9 52 52 WSW 7 11 30.16 1021 10 16 0.00 0.00
3:54 pm 15:54 Cloudy 66 18.9 49 9.4 54 54 W 8 13 30.15 1021 10 16 0.00 0.00
4:54 pm 16:54 Cloudy 65 18.3 50 10 59 59 SSW 9 15 30.14 1021 10 16 0.00 0.00
5:44 pm 17:44 Cloudy 63 17.2 51 10.6 65 65 S 6 9 30.15 1021 10 16 0.00 0.00
5:54 pm 17:54 Cloudy 64 17.8 51 10.6 63 63 SSW 6 9 30.14 1021 10 16 0.00 0.00
6:19 pm 18:19 Cloudy 63 17.2 52 11.1 68 68 S 3 6 30.12 1020 10 16 0.00 0.00
6:54 pm 18:54 Cloudy 64 17.8 52 11.1 65 65 SW 5 7 30.12 1020 10 16 0.00 0.00
7:54 pm 19:54 Cloudy 62 16.7 52 11.1 70 70 SW 7 11 30.13 1020 10 16 0.00 0.00
8:54 pm 20:54 Cloudy 60 15.6 53 11.7 78 78 SSW 6 9 30.13 1020 10 16 0.00 0.00
9:08 pm 21:08 Cloudy 61 16 54 12 77 77 S 7 11 30.15 1021 8 13 0.00 0.00
9:54 pm 21:54 Cloudy 59 15 54 12.2 83 83 S 5 7 30.14 1021 8 13 0.00 0.00
10:47 pm 22:47 Mostly Cloudy with Mist and Fog 58 14.4 54 12.2 87 87 SW 6 9 30.15 1021 6 10 0.00 0.00
10:54 pm 22:54 Mostly Cloudy with Mist and Fog 58 14.4 54 12.2 87 87 SW 5 7 30.15 1021 6 10 0.00 0.00
11:54 pm 23:54 Mostly Cloudy with Mist and Fog 57 13.9 54 12.2 90 90 SW 6 9 30.15 1021 5 8 0.00 0.00

Powered by AerisWeather